Regional Weather Roundup
Issued by NWS Wakefield, VA

Home | Current Version | Previous Version | Text Only | Print | Product List | Glossary On
Versions: 1 2 3 4 5 6 7 8 9 10 11 12 13 14 15 16 17 18 19 20 21 22 23 24 25 26 27 28 29 30 31 32 33 34 35 36 37 38 39 40 41 42 43 44 45 46 47 48 49 50
195
ASUS41 KAKQ 081615
RWRAKQ

REGIONAL WEATHER ROUNDUP
NATIONAL WEATHER SERVICE WAKEFIELD VA
1100 AM EST THU DEC 08 2016

Note: "fair" indicates few or no clouds below 12,000 feet with no
significant weather and/or obstructions to visibility. * = Denotes
station may not report precipitation (e.g., rain,snow,etc.),
thunder or fog.

VAZ042-051-052>054-056-081700-
NORTHERN VIRGINIA

CITY           SKY/WX    TMP DP  RH WIND       PRES   REMARKS
WASH NATIONAL  CLOUDY    47  25  42 W9        30.06S
DULLES         PTSUNNY   43  28  55 SW3       30.05F
FORT BELVOIR   CLOUDY    46  26  46 NW6       30.05F
QUANTICO       PTSUNNY   45  35  68 W3        30.07F
FREDERICKSBRG* PTSUNNY   47  35  64 NW3       30.06F
STAFFORD*      CLOUDY    46  35  67 CALM      30.10F
WARRENTON      MOSUNNY   43  32  65 W3        30.05F
CULPEPER*      PTSUNNY   43  36  77 CALM      30.07F
MANASSAS*      NOT AVBL
LEESBURG*      CLOUDY    45  28  53 W13       30.04F
WINCHESTER     MOSUNNY   43  16  33 W13       30.04F
FRONT ROYAL*   FAIR      41  21  45 W5        30.04F
LURAY*         FAIR      41  23  48 W7        30.05F
$$

VAZ048-049-060>072-079>083-081700-
CENTRAL AND SOUTH CENTRAL VIRGINIA

CITY           SKY/WX    TMP DP  RH WIND       PRES   REMARKS
RICHMOND       CLOUDY    45  40  82 NW9       30.05F
CHESTERFIELD*  FAIR      46  28  49 NW10      30.07F
PETERSBURG*    CLOUDY    46  40  78 NW8       30.06F
HANOVER        CLOUDY    44  36  73 NW7       30.07F
TAPPAHANNOCK*  DRIZZLE   43  43 100 CALM      30.06F
QUINTON*       CLOUDY    43  42  93 CALM      30.05F
CHARLOTTSVILLE PTSUNNY   44  31  60 CALM      30.07S
GORDONSVILLE*  CLOUDY    45  28  50 CALM      30.06F
ORANGE*          N/A     43  36  75 CALM      30.08F
LOUISA*        PTSUNNY   48  37  66 CALM      30.05F
BUMPASS*       PTSUNNY   43  39  85 CALM      30.06F
FARMVILLE*     CLOUDY    49  29  45 CALM      30.07F
CREWE*         FAIR      46  33  59 NW7       30.07F
FORT PICKETT*  FAIR      48  28  45 NW10      30.06F
CHASE CITY*    FAIR      46  28  51 NW7       30.09S
CLARKSVILLE*   FAIR      46  28  49 NW10G16   30.10R
SOUTH HILL*    MOSUNNY   46  33  60 NW8       30.13S
LAWRENCEVILLE* FAIR      48  38  68 NW7       30.06S
EMPORIA*       CLOUDY    46  43  87 W6        30.08S
$$

VAZ088>098-081700-
SOUTHEAST VIRGINIA

CITY           SKY/WX    TMP DP  RH WIND       PRES   REMARKS
NORFOLK        CLOUDY    48  47  96 SW6       30.01F FOG
VIRGINIA BEACH DRZL/FOG  48  45  89 SW7       30.01F VSB 1
NORFOLK NAVAL  CLOUDY    49  47  93 SW7       30.03F FOG
WEST POINT*    CLOUDY    43  42  97 CALM      30.06F
SALUDA*        CLOUDY    43  43 100 CALM      30.05F
NEWPORT NEWS   CLOUDY    47  45  93 W6        30.03F FOG
LANGLEY AFB    LGT RAIN  48  46  93 W7        30.02F FOG
FORT EUSTIS    CLOUDY    46  45  93 NW6       30.02F
WILLIAMSBURG*  CLOUDY    48  45  87 NW6       30.05F
HR EXEC AP*    CLOUDY    48  45  87 SW6       30.02F
FRANKLIN*      CLOUDY    48  46  90 W6        30.05F
US460-WAKEFLD  CLOUDY    46  45  96 NW3       30.05F FOG
$$

VAZ020-022-025-037-045-081700-
WEST CENTRAL AND SOUTHWEST VIRGINIA

CITY           SKY/WX    TMP DP  RH WIND       PRES   REMARKS
STAUNTON*      FLURRIES  39  24  55 W12       30.08F
WAYNESBORO*    PTSUNNY   40  17  40 SW6       30.07F
HOT SPRINGS VA CLOUDY    30  12  47 W15G23    29.97F WCI  19
LYNCHBURG      MOSUNNY   46  20  35 MISG      30.10S
DANVILLE       MOSUNNY   47  20  34 W12G20    30.13R
SOUTH BOSTON*  FAIR      47  19  32 NW9G20    30.12R
MARTINSVILLE   CLOUDY    44  16  32 NW12      30.17R
ROANOKE        CLOUDY    41  17  38 W15       30.14F
BLACKSBURG     CLOUDY    35  20  54 W6        30.14F
DUBLIN*        MOSUNNY   36  21  53 W10G17    30.14F
MARION*        MOSUNNY   37  19  49 W15       30.14F
HILLSVILLE*    CLOUDY    33  17  53 NW18      30.08F WCI  22
RICHLANDS*     FAIR      34  19  55 W8        30.15S
WISE*          MOSUNNY   34  14  44 NW12G18   30.19R
ABINGDON*      SUNNY     40  18  41 W9        30.18F
$$

MDZ021>025-VAZ099-100-081700-
SOUTHERN MARYLAND AND THE DELMARVA PENINSULA

CITY           SKY/WX    TMP DP  RH WIND       PRES   REMARKS
PATUXENT RIVER LGT RAIN  42  39  89 NE5       30.05F
BAY BRIDGE APT CLOUDY    45  30  57 W8        30.05S
LEONARDTOWN    CLOUDY    39  37  93 CALM      30.08S
DOVER          CLOUDY    42  36  80 SW9       30.01F
GEORGETOWN     CLOUDY    41  35  79 CALM      30.05F
EASTON         PTSUNNY   45  36  70 SW5       30.08F
CAMBRIDGE      CLOUDY    41  36  81 CALM      30.06S
SALISBURY      CLOUDY    43  35  73 NW9       30.05F
OCEAN CITY     CLOUDY    42  39  89 NW3       30.05F
WALLOPS ISLAND CLOUDY    43  38  82 W5        30.06F
ACCOMACK*      CLOUDY    44  43  93 W3        30.05F
$$

NCZ012>017-030>032-081700-
NORTH CENTRAL AND EASTERN NORTH CAROLINA

CITY           SKY/WX    TMP DP  RH WIND       PRES   REMARKS
ROANOKE RAPIDS CLOUDY    48  43  81 W6        30.07S
RALEIGH        CLOUDY    50  30  46 NW7G17    30.12R
ELIZABETH CITY CLOUDY    51  47  86 CALM      30.04F
AHOSKIE*       CLOUDY    50  47  90 CALM      30.06F
EDENTON*       CLOUDY    55  49  80 CALM      30.06S
CURRITUCK*     DRIZZLE   50  49  99 W3        30.05F
KILL DEVIL HLS CLOUDY    53  48  84 CALM      30.03F
MANTEO         CLOUDY    52  47  83 CALM      30.04F
CAPE HATTERAS  NOT AVBL
TARBORO*       NOT AVBL
GOLDSBORO      PTSUNNY   54  52  94 W9        30.07R
WASHINGTON     CLOUDY    54  49  83 W7        30.06F
GREENVILLE     CLOUDY    52  50  93 W6        30.08F
NEW BERN       CLOUDY    56  49  77 W8        30.08F
WILMINGTON     CLOUDY    56  52  86 W9        30.09F
$$

VAZ048-081700-
ELSEWHERE

CITY           SKY/WX    TMP DP  RH WIND       PRES   REMARKS
HARRISBURG PA  PTSUNNY   43  22  43 NW10      29.98F
BALTIMORE      PTSUNNY   44  24  45 W10       30.03F
ANNAPOLIS      CLOUDY    47  26  44 VRB6      30.04F
ANDREWS AFB    CLOUDY    45  25  45 W7        30.03F
PHILADELPHIA   CLOUDY    42  28  57 SW10      30.01F
HENDERSON NC   CLOUDY    45  24  44 NW12G17   30.10R
GREENSBORO     CLOUDY    48  26  42 NW10      30.12R
ROCKY MOUNT    CLOUDY    50  39  66 NW14G22   30.09S
$$

VAZ100-081700-
MARINE

STATION/POSITION TIME  TEMP    WIND        PRES    WAVE   SWELL
                       AIR SEA DIR/SP/G            HT/PER HT/PER
                 (UTC) (F)     (DEG/KT/KT) (MB)    (FT/S) (FT/S)
BRANDYWINE LGT   1548   43     290/ 10/ 13   N/A
CAPE MAY NJ      1548   44 47  310/  9/ 11 1016.7F
LEWES DE         1548   43 48  310/ 11/ 12 1017.3F
OCEAN-CITY-INLET 1548   42 47  320/  4/  5 1017.8F
WACHAPREAGUE VA  1548   44 48   CALM  /  2 1017.6F
THOMAS POINT MD  1600   44 48  240/  5/  5   N/A
GOOSES REEF MD   1550   44     130/  2/  2 1018.5F
COVE POINT MD    1548   42      10/  5/  6 1018.5F
SOLOMONS ISLAND  1548   41 50  350/  4/  5   N/A
BISHOPS HEAD MD  1548   44 46  350/  3/  4 1018.1F
PINEY POINT MD   1548           80/  5/  6   N/A
POTOMAC MD       1550   43      40/  6/  8 1017.0F
CAMBRIDGE MD     1548   43 47  290/  4/  6 1017.2F
LEWISETTA VA     1548   43 48  130/  8/  9 1017.3F
RAPPAHANNOCK LGT 1548          320/  7/  9 1018.0F
STINGRAY PT      1550   45      20/  6/  6 1017.8F
YORK RVR RNG VA  1548   46     330/  9/ 10 1017.0R
YORKTOWN VA      1548   47 51  280/  5/  8 1016.9R
JAMESTOWN VA     1550   46     290/  8/ 10   N/A
DOMINION TERM VA 1548   48     270/  9/ 11 1017.0F
KIPTOPEKE VA     1548      51  220/  9/ 10   N/A
CHES BAY BRIDGE  1548   48 52  220/  9/ 10 1016.6F
CAPE HENRY VA    1548   48     200/  7/ 10   N/A
WILLOUBY STN VA  1548   48     220/  8/  9 1017.5F
S CRANEY ISL VA  1548   48     210/  7/  9 1016.8F
CAPE HENRY BUOY  1542      54                N/A     3/10   2/11
CAPE CHARLES BUO 1556      54                N/A     3/ 8   2/11
OFFSHORE WE BUOY 1551      56                N/A     3/ 8   2/11
64NM E OF VA BCH 1550   53 59  230/  6/  8 1016.9F   4/10   3/10
DUCK PIER NC     1548   52 54  210/  5/  7 1016.4F
44100 DUCK FRF   1535      55                N/A     4/10   2/11
OREGON INLET NC  1542   53 55  240/  4/  4 1017.3S
HATTERAS NC      1548   59 61   CALM  /  1 1016.8F
DIAMOND SHLS NC  1550   61 78  300/  8/ 10 1017.2F   4/11   3/11
CAPE LOOKOUT NC  1500   59     260/ 13/ 16 1017.8R
$$




USA.gov is the U.S. government's official web portal to all federal, state and local government web resources and services.